Regional Weather Roundup
Issued by NWS Kansas City/Pleasant Hill, MO

Home | Current Version | Previous Version | Text Only | Print | Product List | Glossary On
Versions: 1 2 3 4 5 6 7 8 9 10 11 12 13 14 15 16 17 18 19 20 21 22 23 24 25 26 27 28 29 30 31 32 33 34 35 36 37 38 39 40 41 42 43 44 45 46 47 48 49 50
000
ASUS43 KEAX 041010
RWREAX

WEATHER ROUNDUP FOR EASTERN KANSAS AND NORTHWEST MISSOURI
NATIONAL WEATHER SERVICE KANSAS CITY/PLEASANT HILL MO
500 AM CDT FRI SEP 04 2015

KSZ040-057-103>105-MOZ028-029-037-043-041100-
...KANSAS CITY METROPOLITAN AREA...

CITY           SKY/WX    TMP DP  RH WIND       PRES   REMARKS
K.C. INTL      PTCLDY    72  66  81 S9        29.93F
K.C. DOWNTOWN  PTCLDY    76  68  76 S7        29.92S
LEES SUMMIT    PTCLDY    73  67  81 S7        29.95S
OLATHE - IXD   PTCLDY    70  68  93 S7        29.95S
OLATHE - OJC   PTCLDY    70  67  90 SE5       29.94S
LAWRENCE       PTCLDY    71  67  87 SE6       29.93R

$$

MOZ001>008-011>017-020>025-030>033-038>040-044>046-053-054-041100-
...NORTHERN AND CENTRAL MISSOURI...

CITY           SKY/WX    TMP DP  RH WIND       PRES   REMARKS
ST. JOSEPH     PTCLDY    71  67  87 S5        29.92S
MOSBY          MOSUNNY   70  68  94 CALM      29.94R
WARRENSBURG    CLEAR     70  68  94 S5        29.95S
WHITEMAN AFB   PTCLDY    70  67  90 S6        29.95S
CLINTON          N/A     72  70  94 CALM      29.96S
SEDALIA        PTCLDY    71  67  87 S6        29.97S
WARSAW         NOT AVBL
CHILLICOTHE      N/A     69  67  93 CALM      29.96S
KIRKSVILLE     CLEAR     68  66  93 SE3       29.98S FOG

$$

MOZ041-047>049-056>058-063>065-088>090-097-041100-
...EASTERN AND SOUTHERN MISSOURI...

CITY           SKY/WX    TMP DP  RH WIND       PRES   REMARKS
ST. LOUIS INTL CLEAR     77  68  73 CALM      29.99R
SPIRIT OF STL  CLEAR     69  69 100 CALM      29.97S FOG
COLUMBIA       CLEAR     71  68  90 SE6       29.98S
JEFFERSON CITY PTCLDY    69  67  93 CALM      29.97S
ROLLA          PTCLDY    70  66  87 S7        29.99S
OSAGE BEACH    PTCLDY    70  66  88 SE3       29.98S
SPRINGFIELD    CLEAR     72  67  84 SE9       29.99R
BRANSON        CLEAR     72  66  83 CALM      30.01S
JOPLIN         MOCLDY    74  66  76 S10       29.96R
WEST PLAINS    CLEAR     68  65  90 CALM      30.03S FOG

$$

IAZ060-094-KSZ022-034>040-054-083-096-NEZ052-066-093-041100-
...KANSAS...SOUTHEAST NEBRASKA AND IOWA...

CITY           SKY/WX    TMP DP  RH WIND       PRES   REMARKS
TOPEKA         MOCLDY    75  67  76 S9        29.91S
MANHATTAN      MOCLDY    75  67  76 S6        29.89R
EMPORIA        MOCLDY    71  68  90 S12       29.92S
CHANUTE        MOCLDY    72  68  87 SE7       29.94R
WICHITA        MOCLDY    72  64  76 S9        29.90S
OMAHA          MOCLDY    75  68  78 S14       29.87R
LINCOLN        CLOUDY    76  67  73 S10       29.85F
FALLS CITY       N/A     74  68  81 S8        29.89S
LAMONI         PTCLDY    71  67  87 S6        29.94F
DES MOINES     PTCLDY    72  66  81 S7        29.91F

$$




USA.gov is the U.S. government's official web portal to all federal, state and local government web resources and services.